When you browse on this site, cookies collect data to enhance your experience and personalize the content and advertising you see.
Visit our Privacy Policy to learn more. By continuing to use the site, you agree to this use of cookies and data.

Stündliche Wetter Mendoza

Heute, 15 Juli, Mittwoch

Zeit Temperatur Niederschläge Wind Luftdruck Luftfeuchtigkeit
00:00 +9°C° 0 mm 1 m/S 698 mmHg 45%
01:00 +8°C° 0 mm 1 m/S 697 mmHg 47%
02:00 +8°C° 0 mm 1 m/S 697 mmHg 48%
03:00 +7°C° 0 mm 1 m/S 697 mmHg 50%
04:00 +7°C° 0 mm 1 m/S 697 mmHg 51%
05:00 +7°C° 0 mm 1 m/S 697 mmHg 51%
06:00 +7°C° 0 mm 1 m/S 697 mmHg 52%
07:00 +7°C° 0 mm 1 m/S 697 mmHg 52%
08:00 +9°C° 0 mm 1 m/S 698 mmHg 47%
09:00 +11°C° 0 mm 1 m/S 698 mmHg 41%
10:00 +12°C° 0 mm 0 m/S 698 mmHg 36%
11:00 +14°C° 0 mm 1 m/S 698 mmHg 34%
12:00 +15°C° 0 mm 1 m/S 697 mmHg 32%
13:00 +15°C° 0 mm 1 m/S 697 mmHg 31%
14:00 +15°C° 0 mm 1 m/S 697 mmHg 31%
15:00 +15°C° 0 mm 1 m/S 697 mmHg 31%
16:00 +15°C° 0 mm 1 m/S 697 mmHg 32%
17:00 +14°C° 0 mm 1 m/S 697 mmHg 34%
18:00 +13°C° 0 mm 1 m/S 697 mmHg 36%
19:00 +11°C° 0 mm 1 m/S 697 mmHg 38%
20:00 +11°C° 0 mm 1 m/S 697 mmHg 38%
21:00 +10°C° 0 mm 1 m/S 697 mmHg 38%
22:00 +10°C° 0 mm 1 m/S 697 mmHg 37%
23:00 +10°C° 0 mm 1 m/S 697 mmHg 38%

Morgen, 16 Juli, Donnerstag

Zeit Temperatur Niederschläge Wind Luftdruck Luftfeuchtigkeit
00:00 +9°C° 0 mm 1 m/S 697 mmHg 39%
01:00 +8°C° 0 mm 1 m/S 697 mmHg 40%
02:00 +8°C° 0 mm 1 m/S 697 mmHg 42%
03:00 +8°C° 0 mm 1 m/S 696 mmHg 43%
04:00 +8°C° 0 mm 1 m/S 696 mmHg 44%
05:00 +8°C° 0 mm 1 m/S 696 mmHg 44%
06:00 +8°C° 0 mm 1 m/S 697 mmHg 45%
07:00 +8°C° 0 mm 1 m/S 697 mmHg 46%
08:00 +10°C° 0 mm 1 m/S 697 mmHg 41%
09:00 +12°C° 0 mm 1 m/S 698 mmHg 36%
10:00 +15°C° 0 mm 1 m/S 698 mmHg 31%
11:00 +15°C° 0 mm 1 m/S 697 mmHg 29%
12:00 +16°C° 0 mm 1 m/S 697 mmHg 27%
13:00 +17°C° 0 mm 2 m/S 696 mmHg 25%
14:00 +17°C° 0 mm 2 m/S 696 mmHg 25%
15:00 +17°C° 0 mm 2 m/S 696 mmHg 26%
16:00 +17°C° 0 mm 2 m/S 696 mmHg 26%
17:00 +16°C° 0 mm 2 m/S 696 mmHg 29%
18:00 +14°C° 0 mm 1 m/S 696 mmHg 32%
19:00 +13°C° 0 mm 1 m/S 696 mmHg 34%
20:00 +12°C° 0 mm 1 m/S 696 mmHg 35%
21:00 +12°C° 0 mm 1 m/S 696 mmHg 37%
22:00 +12°C° 0 mm 2 m/S 696 mmHg 38%
23:00 +11°C° 0 mm 1 m/S 695 mmHg 41%

übermorgen, 17 Juli, Freitag

Zeit Temperatur Niederschläge Wind Luftdruck Luftfeuchtigkeit
00:00 +10°C° 0 mm 1 m/S 695 mmHg 44%
01:00 +9°C° 0 mm 1 m/S 694 mmHg 48%
02:00 +9°C° 0 mm 1 m/S 694 mmHg 48%
03:00 +9°C° 0 mm 1 m/S 694 mmHg 49%
04:00 +8°C° 0 mm 2 m/S 693 mmHg 49%
05:00 +8°C° 0 mm 2 m/S 693 mmHg 52%
06:00 +8°C° 0 mm 2 m/S 693 mmHg 55%
07:00 +7°C° 0 mm 2 m/S 693 mmHg 58%
08:00 +9°C° 0 mm 2 m/S 693 mmHg 52%
09:00 +12°C° 0 mm 2 m/S 693 mmHg 47%
10:00 +15°C° 0 mm 2 m/S 694 mmHg 41%
11:00 +15°C° 0 mm 2 m/S 693 mmHg 38%
12:00 +16°C° 0 mm 2 m/S 693 mmHg 35%
13:00 +17°C° 0 mm 3 m/S 692 mmHg 32%
14:00 +18°C° 0 mm 2 m/S 692 mmHg 31%
15:00 +18°C° 0 mm 2 m/S 692 mmHg 30%
16:00 +19°C° 0 mm 1 m/S 692 mmHg 29%
17:00 +17°C° 0 mm 2 m/S 692 mmHg 31%
18:00 +16°C° 0 mm 2 m/S 692 mmHg 34%
19:00 +13°C° 0 mm 3 m/S 692 mmHg 36%
20:00 +13°C° 0 mm 3 m/S 692 mmHg 38%
21:00 +13°C° 0 mm 3 m/S 692 mmHg 40%
22:00 +12°C° 0 mm 3 m/S 692 mmHg 43%
23:00 +12°C° 0 mm 3 m/S 692 mmHg 49%

18 Juli, Samstag

Zeit Temperatur Niederschläge Wind Luftdruck Luftfeuchtigkeit
00:00 +11°C° 0 mm 3 m/S 692 mmHg 55%
01:00 +11°C° 0 mm 3 m/S 692 mmHg 61%
02:00 +11°C° 0 mm 3 m/S 692 mmHg 61%
03:00 +10°C° 0 mm 3 m/S 692 mmHg 61%
04:00 +10°C° 0 mm 3 m/S 692 mmHg 61%
05:00 +10°C° 0 mm 3 m/S 692 mmHg 60%
06:00 +10°C° 0 mm 3 m/S 692 mmHg 59%
07:00 +9°C° 0 mm 3 m/S 693 mmHg 59%
08:00 +11°C° 0 mm 3 m/S 693 mmHg 51%
09:00 +13°C° 0 mm 3 m/S 693 mmHg 43%
10:00 +16°C° 0 mm 3 m/S 694 mmHg 36%
11:00 +17°C° 0 mm 3 m/S 694 mmHg 35%
12:00 +18°C° 0 mm 3 m/S 693 mmHg 34%
13:00 +19°C° 0 mm 3 m/S 693 mmHg 33%
14:00 +19°C° 0 mm 3 m/S 693 mmHg 35%
15:00 +18°C° 0 mm 3 m/S 693 mmHg 36%
16:00 +18°C° 0 mm 3 m/S 693 mmHg 38%
17:00 +17°C° 0 mm 3 m/S 694 mmHg 43%
18:00 +14°C° 0 mm 3 m/S 694 mmHg 47%
19:00 +14°C° 0 mm 2 m/S 694 mmHg 52%
20:00 +13°C° 0 mm 2 m/S 694 mmHg 52%
21:00 +13°C° 0 mm 2 m/S 695 mmHg 53%
22:00 +13°C° 0 mm 2 m/S 695 mmHg 53%
23:00 +12°C° 0 mm 2 m/S 695 mmHg 53%

19 Juli, Sonntag

Zeit Temperatur Niederschläge Wind Luftdruck Luftfeuchtigkeit
00:00 +12°C° 0 mm 2 m/S 695 mmHg 53%
01:00 +12°C° 0 mm 2 m/S 695 mmHg 52%
02:00 +10°C° 0 mm 2 m/S 695 mmHg 54%
03:00 +10°C° 0 mm 3 m/S 695 mmHg 56%
04:00 +10°C° 0 mm 3 m/S 695 mmHg 58%
05:00 +10°C° 0 mm 2 m/S 695 mmHg 59%
06:00 +10°C° 0 mm 2 m/S 695 mmHg 60%
07:00 +9°C° 0 mm 2 m/S 695 mmHg 61%
08:00 +12°C° 0 mm 2 m/S 696 mmHg 59%
09:00 +13°C° 0 mm 2 m/S 696 mmHg 58%
10:00 +15°C° 0 mm 2 m/S 696 mmHg 56%
11:00 +15°C° 0 mm 2 m/S 695 mmHg 56%
12:00 +16°C° 0 mm 2 m/S 695 mmHg 56%
13:00 +16°C° 0 mm 2 m/S 694 mmHg 56%
14:00 +16°C° 0 mm 2 m/S 694 mmHg 57%
15:00 +16°C° 0 mm 2 m/S 694 mmHg 59%
16:00 +16°C° 0 mm 2 m/S 694 mmHg 60%
17:00 +14°C° 0 mm 3 m/S 694 mmHg 66%
18:00 +13°C° 0 mm 3 m/S 694 mmHg 72%
19:00 +12°C° 0 mm 3 m/S 694 mmHg 78%
20:00 +13°C° 0 mm 2 m/S 694 mmHg 80%
21:00 +12°C° 0 mm 2 m/S 694 mmHg 82%
22:00 +12°C° 0 mm 1 m/S 694 mmHg 85%
23:00 +12°C° 0 mm 1 m/S 694 mmHg 84%

20 Juli, Montag

Zeit Temperatur Niederschläge Wind Luftdruck Luftfeuchtigkeit
00:00 +11°C° 0 mm 1 m/S 694 mmHg 84%
01:00 +10°C° 0 mm 0 m/S 694 mmHg 83%
02:00 +10°C° 0 mm 0 m/S 693 mmHg 83%
03:00 +10°C° 0 mm 1 m/S 693 mmHg 82%
04:00 +10°C° 0 mm 1 m/S 693 mmHg 81%
05:00 +10°C° 0 mm 1 m/S 693 mmHg 82%
06:00 +10°C° 0 mm 1 m/S 693 mmHg 83%
07:00 +10°C° 0 mm 1 m/S 694 mmHg 85%
08:00 +11°C° 0 mm 1 m/S 694 mmHg 80%
09:00 +12°C° 0 mm 1 m/S 694 mmHg 75%
10:00 +14°C° 0 mm 1 m/S 694 mmHg 70%
11:00 +14°C° 0 mm 1 m/S 694 mmHg 67%
12:00 +15°C° 0 mm 1 m/S 694 mmHg 64%
13:00 +16°C° 0 mm 1 m/S 693 mmHg 61%
14:00 +16°C° 0 mm 2 m/S 693 mmHg 60%
15:00 +16°C° 0 mm 2 m/S 693 mmHg 60%
16:00 +16°C° 0 mm 2 m/S 693 mmHg 59%
17:00 +15°C° 0 mm 2 m/S 694 mmHg 65%
18:00 +13°C° 0 mm 3 m/S 694 mmHg 70%
19:00 +12°C° 0 mm 3 m/S 694 mmHg 75%
20:00 +12°C° 0.1 mm 3 m/S 694 mmHg 79%
21:00 +11°C° 0.1 mm 3 m/S 694 mmHg 83%
22:00 +11°C° 0.1 mm 3 m/S 694 mmHg 87%
23:00 +11°C° 0.1 mm 3 m/S 694 mmHg 86%
Mehr zeigen